Location: Dappach
(48.9767°N, 9.6998°E)
Time: 19:36:27
(UTC+00:00)

Cosmos 1455 - Pass Details

Date: 23 May 2024
Orbit: 445 x 459 km, 82.5° (Epoch: 23 June)

Event Time Altitude Azimuth Distance (km) Brightness Sun altitude
Rises 00:26:11 0° 355° (N) 2,461 6.9 -18.7°
Reaches altitude 10° 00:28:19 10° 2° (N) 1,585 5.8 -18.6°
Maximum altitude 00:31:39 46° 77° (ENE) 616 2.7 -18.5°
Enters shadow 00:32:57 30° 131° (SE) 837 3.0 -18.4°
